GFSSGP_850_thetae_231.txt.gz
Theta_e
320 322 325 327 338 343 345 346 346 349 348 344 343 345 344 344 347 350 346 346 343 342 341 339 339 338 332 320 333 338 339 339 339 338 335 327 325 325 325 325 326 328 328 328 329 330 331 331 334
322 324 326 326 343 338 341 337 348 347 345 344 344 344 344 345 343 340 346 347 343 342 341 340 338 337 338 328 320 327 332 334 336 335 334 327 326 326 326 326 326 326 327 327 327 327 329 330 329
322 325 326 331 336 340 339 342 345 342 343 344 344 343 343 344 339 343 343 348 344 342 341 338 335 333 335 336 325 321 323 327 330 331 330 327 327 327 327 327 327 327 327 327 327 326 327 327 326
322 323 325 336 338 334 337 342 342 343 343 344 344 343 341 337 337 340 342 345 344 343 339 334 329 328 333 338 331 322 324 325 326 327 328 329 328 327 327 327 328 328 328 329 328 328 327 327 327
321 321 331 335 332 331 332 341 341 343 344 345 346 345 344 336 344 345 348 346 345 342 337 332 330 331 334 339 335 328 323 323 324 327 328 329 329 328 327 326 325 327 329 329 330 331 330 328 328
319 318 331 333 331 327 330 339 341 343 342 347 350 344 338 341 346 343 342 344 344 340 336 333 333 333 336 339 337 334 327 323 323 324 324 325 325 325 325 324 325 326 330 330 331 331 330 330 329
320 321 320 320 325 330 327 334 337 336 347 348 345 343 344 339 340 338 339 342 341 341 337 334 333 334 336 339 339 338 336 331 325 324 324 325 325 325 325 325 325 326 328 330 330 330 329 329 329
316 319 318 319 325 327 322 321 327 342 337 343 328 332 344 346 343 341 341 336 340 341 338 336 334 333 336 340 340 339 339 338 335 332 329 327 327 328 328 329 328 328 329 329 330 330 330 330 330
316 322 323 322 323 325 319 324 326 326 330 325 325 325 332 343 339 336 336 336 334 334 341 338 337 334 332 333 333 333 333 333 333 332 332 331 331 331 330 330 330 331 331 332 332 332 332 332 332
318 323 321 319 320 322 320 321 320 324 324 324 325 326 334 344 341 337 335 335 334 334 339 341 339 338 337 340 341 342 341 341 340 340 340 340 339 339 337 335 334 333 332 332 332 333 334 335 336
316 322 319 319 319 318 319 319 318 323 325 324 327 326 330 343 342 340 338 336 335 333 339 344 342 341 342 344 343 340 340 323 327 335 341 337 344 346 345 342 341 339 338 337 336 335 336 340 341
321 318 319 319 319 318 320 318 319 319 319 321 324 326 327 336 339 336 338 339 334 335 339 344 344 342 343 345 343 332 320 318 318 319 323 329 341 345 346 347 346 345 344 341 339 339 339 340 342
321 318 317 317 317 317 318 318 318 317 318 321 324 325 327 331 333 334 339 339 337 337 343 344 344 345 344 344 332 321 317 316 316 316 316 322 332 341 345 345 341 343 343 344 342 340 341 340 341
318 318 318 317 317 317 319 318 319 318 317 320 327 332 337 338 338 338 336 333 341 344 342 344 340 344 339 328 319 316 316 316 315 314 314 314 315 318 330 338 339 338 340 341 338 338 334 340 339
318 320 321 319 317 318 318 319 320 319 318 318 317 320 326 333 334 334 339 340 343 345 339 342 343 335 323 317 316 315 314 314 313 313 314 316 316 316 317 317 316 323 332 334 336 336 335 333 335
320 319 322 320 319 318 318 320 320 319 321 322 322 321 319 317 326 340 340 337 341 343 336 334 333 321 316 316 315 314 314 314 314 314 315 316 316 316 316 316 317 317 316 316 322 330 332 333 331
320 322 321 320 318 319 321 320 319 319 321 323 323 324 323 319 315 320 335 339 338 342 332 326 321 316 317 315 315 314 315 315 315 315 315 314 314 313 313 314 315 316 317 319 320 321 324 330 331
321 321 320 321 320 319 321 321 320 320 321 322 323 324 325 325 321 316 316 324 331 337 329 324 318 317 316 315 315 315 314 314 313 313 315 315 313 312 312 312 313 313 314 317 320 323 326 327 329
319 321 321 319 318 319 321 321 320 320 320 321 322 324 325 325 324 323 321 323 325 327 326 319 317 316 315 315 315 315 315 314 314 316 318 318 316 315 314 311 311 312 312 313 315 321 327 328 329
320 320 320 319 318 318 320 320 320 319 319 319 321 322 323 325 325 325 325 325 325 324 320 318 317 316 315 316 317 318 319 319 319 319 318 318 317 316 316 316 314 313 312 311 312 313 320 327 332
319 320 320 320 318 317 320 320 319 319 319 319 319 320 321 322 323 323 324 323 323 322 321 320 320 320 319 319 319 320 320 319 318 317 316 316 316 317 317 316 315 314 313 312 311 311 311 317 324
320 317 318 319 319 321 316 321 319 319 320 320 320 319 318 319 320 321 322 322 322 323 323 324 323 323 322 321 320 320 321 321 320 319 316 316 317 318 317 317 316 314 313 311 309 310 310 310 313
319 316 317 317 319 318 318 319 319 318 320 320 319 319 319 317 317 317 317 318 319 320 320 322 323 323 322 322 321 321 321 319 318 316 316 316 316 318 318 317 316 315 314 312 310 308 309 309 309
314 316 315 314 317 318 318 319 319 320 320 319 319 319 319 318 317 317 315 314 314 315 316 317 318 319 321 321 318 315 314 312 313 314 314 315 316 316 318 316 315 315 314 313 312 309 308 308 308
318 317 316 316 316 314 317 318 318 318 318 318 319 316 315 316 315 315 314 313 313 312 312 312 312 312 312 313 313 312 309 308 307 308 311 313 314 316 316 318 315 314 314 313 312 311 310 310 310
316 318 316 314 315 315 317 317 320 316 314 315 316 315 314 314 313 312 312 311 311 310 309 309 310 310 310 310 310 309 308 308 306 306 307 309 311 315 317 318 316 314 314 313 313 312 311 311 310
317 318 314 319 316 318 317 318 317 316 316 315 315 315 314 312 312 311 311 311 311 309 308 308 309 309 309 309 308 308 308 308 307 305 307 307 310 313 318 318 316 315 314 313 313 312 311 311 311
317 314 318 318 320 314 315 317 317 318 317 315 315 314 313 312 312 311 311 310 309 309 307 307 306 308 308 308 309 309 308 307 306 305 306 308 310 311 316 316 315 314 312 311 311 310 309 309 310
317 316 316 316 318 318 315 314 317 317 316 316 315 313 313 312 310 310 310 309 309 308 308 308 308 308 308 309 308 307 306 306 306 306 306 306 307 309 309 309 309 308 308 308 308 308 308 308 309
316 317 316 319 316 317 318 316 315 316 315 314 314 313 310 310 309 309 309 308 308 309 308 308 308 308 308 307 306 305 304 305 305 306 306 307 308 309 309 308 308 307 307 307 307 307 307 307 308

GFSSGP_850_thetae_234.txt.gz
Theta_e
322 324 327 330 338 339 341 341 347 348 349 346 346 346 346 345 348 353 352 353 351 351 353 340 332 323 329 340 342 341 339 339 339 337 330 325 325 326 326 328 329 330 330 331 331 332 333 333 338
322 325 328 333 341 339 339 342 342 346 346 345 346 346 346 348 346 347 351 346 349 352 353 351 337 326 323 336 339 340 340 339 340 337 331 326 326 326 326 326 326 327 328 329 330 330 330 330 330
323 326 331 337 337 340 339 340 340 344 345 346 346 345 344 346 345 348 349 350 348 350 353 346 339 333 324 323 333 337 338 339 338 335 332 327 326 326 327 327 327 327 327 327 327 328 327 327 327
325 326 331 336 337 337 338 340 341 344 345 346 345 345 344 344 346 350 350 351 350 351 351 339 335 338 331 322 322 326 329 334 334 334 331 328 327 327 327 328 328 328 328 328 328 328 328 328 327
322 328 334 335 335 335 338 339 341 342 343 344 346 345 343 346 345 342 344 351 351 350 350 337 331 333 336 329 323 324 327 328 330 330 329 330 329 329 328 327 327 327 329 329 330 331 331 331 329
326 327 332 334 334 334 334 339 339 341 343 344 346 341 342 348 348 348 348 349 350 349 348 337 334 335 338 335 331 325 323 324 326 327 328 329 328 327 327 326 325 325 327 330 330 331 332 332 331
326 328 328 329 331 331 332 334 337 339 341 342 343 339 346 350 347 345 346 347 350 345 340 347 339 335 339 336 335 333 328 323 323 324 325 324 324 324 325 325 325 325 326 328 329 330 330 330 330
324 327 327 327 328 331 330 331 331 337 337 344 335 332 344 347 345 343 344 346 349 344 345 347 343 347 340 339 338 339 338 336 332 326 325 325 326 326 327 327 327 327 328 328 329 330 330 330 330
320 327 328 327 330 329 327 329 335 333 335 332 330 331 337 351 346 345 343 343 343 346 346 345 346 342 350 345 339 336 332 331 332 332 331 331 331 335 331 330 330 330 331 331 331 332 332 333 333
324 327 327 326 327 328 326 327 332 331 331 332 329 333 339 349 345 343 341 341 344 344 346 347 347 338 340 340 336 339 338 340 338 338 339 340 345 344 342 340 334 333 332 332 332 333 333 333 338
325 326 325 324 324 324 324 324 325 327 330 327 325 327 335 344 347 344 343 340 341 343 344 349 346 340 346 348 344 341 341 334 339 339 343 346 348 351 349 349 348 342 343 339 344 340 342 346 345
324 323 324 322 321 322 323 322 322 323 323 322 324 331 331 334 333 336 336 338 343 343 343 348 348 340 344 346 344 342 341 327 327 324 328 327 343 348 350 354 353 353 352 350 349 347 346 346 347
324 323 322 321 321 322 322 322 323 324 322 324 332 334 334 333 332 331 339 348 347 344 345 348 346 343 342 344 345 342 331 322 317 316 315 315 321 322 332 342 345 347 347 350 350 349 349 348 348
323 323 323 322 322 321 323 323 323 323 323 324 325 327 329 333 336 335 338 346 348 345 344 343 344 341 343 344 341 325 317 316 315 314 314 314 314 313 315 322 330 337 341 343 345 347 346 343 343
323 324 324 323 322 322 322 324 325 323 324 324 325 325 325 325 324 329 340 345 343 343 344 342 343 343 342 332 319 316 316 316 315 315 315 315 315 315 315 323 325 328 325 330 338 341 344 346 344
324 324 325 324 323 321 322 326 324 324 325 326 326 326 326 327 325 325 333 341 338 339 342 339 342 338 323 317 316 316 315 320 317 315 315 315 315 315 315 321 319 315 324 331 331 330 331 334 335
325 326 325 324 323 324 324 326 324 324 325 326 327 327 328 328 328 327 327 333 335 337 337 336 332 324 317 317 316 315 315 319 315 315 315 313 313 312 312 312 312 313 315 327 330 332 333 332 330
325 324 324 325 323 323 325 326 324 324 325 326 326 327 328 328 329 328 327 327 329 332 333 329 323 319 317 316 315 315 315 315 314 315 316 317 319 316 315 316 312 312 313 316 314 315 324 332 334
324 324 324 324 322 324 325 325 325 324 324 325 325 326 327 328 328 328 328 328 328 329 328 327 321 318 317 321 322 321 321 319 320 317 317 318 319 319 317 320 317 316 317 313 312 312 321 326 332
324 324 324 323 322 323 325 325 324 323 323 323 324 324 325 325 326 328 328 328 327 327 327 326 324 318 320 322 319 320 323 323 323 323 319 317 317 317 318 317 318 317 318 316 313 312 316 321 329
324 324 324 324 323 323 324 325 324 323 322 322 322 322 322 322 323 324 327 327 327 327 327 327 324 321 322 319 325 325 325 324 324 325 324 324 323 318 317 317 317 317 317 318 312 315 313 319 321
323 322 321 322 323 324 323 323 326 324 324 322 322 321 321 320 320 320 321 322 322 322 323 325 324 323 323 322 321 321 323 324 324 324 323 323 323 321 318 317 317 317 318 317 315 312 310 317 319
322 320 320 320 321 322 321 322 326 324 323 323 322 321 321 320 320 319 318 318 318 318 318 318 319 318 317 318 321 321 321 321 320 320 321 321 322 323 323 322 320 318 317 318 315 312 311 312 317
319 319 319 320 320 322 322 320 319 323 323 323 321 320 320 319 318 318 318 317 317 316 315 316 316 317 317 317 316 315 314 315 315 315 316 316 318 319 321 323 323 322 319 318 317 314 312 310 309
318 319 320 320 321 319 321 319 320 323 322 321 321 320 319 318 317 317 316 315 315 314 314 314 313 314 315 315 316 316 316 314 312 314 314 315 316 317 318 322 322 322 321 318 315 314 313 313 313
318 318 320 318 319 317 319 320 324 322 319 319 319 319 318 317 316 316 315 315 314 314 314 313 313 312 312 314 314 315 315 314 313 313 313 314 315 315 316 319 321 322 322 321 317 315 315 315 314
319 320 319 322 321 321 319 320 321 320 320 319 318 317 317 316 315 315 314 314 313 313 312 312 311 310 311 311 312 313 314 314 313 313 312 312 312 313 314 317 319 320 321 320 318 316 316 314 313
320 318 322 320 323 317 316 316 317 321 320 319 318 317 316 315 314 313 312 312 311 311 310 310 311 311 311 311 311 312 312 312 312 311 310 310 311 312 312 313 316 317 319 318 317 315 315 314 314
320 319 319 319 319 319 318 317 319 318 318 318 317 316 315 314 313 312 311 310 310 310 310 310 310 310 310 310 311 311 311 310 309 308 309 309 310 310 310 310 313 314 317 316 314 314 314 313 313
318 319 319 321 321 320 320 321 319 317 317 317 316 315 314 313 312 311 310 310 309 310 310 310 309 309 309 309 309 308 307 307 306 306 306 307 307 308 308 310 311 312 313 312 311 312 313 312 312

GFSSGP_850_thetae_237.txt.gz
Theta_e
325 329 334 334 341 342 344 343 346 345 345 344 345 347 347 347 351 355 355 353 349 352 350 338 327 329 339 341 342 334 332 334 331 327 326 327 329 329 329 329 329 330 330 330 330 330 330 330 335
330 329 333 335 343 345 342 342 341 342 343 343 345 347 348 350 347 353 353 352 349 349 352 348 333 324 338 342 342 339 334 338 337 331 327 326 327 327 327 327 327 327 328 329 329 328 327 327 326
326 329 332 337 340 344 342 339 340 339 341 343 343 345 346 348 349 351 351 351 351 351 350 348 338 330 329 340 342 341 338 340 340 334 329 327 326 326 327 327 327 327 327 327 327 327 326 326 326
330 331 332 334 341 338 340 340 340 340 340 339 340 345 346 345 348 351 350 350 347 348 354 346 339 333 324 333 339 340 340 340 340 335 331 328 327 327 327 327 327 328 328 328 328 329 328 328 328
328 330 333 335 337 337 336 337 339 341 340 341 340 342 346 347 350 351 352 350 347 346 352 346 335 337 330 323 325 333 336 337 336 335 332 329 328 328 327 327 327 327 327 329 329 330 330 330 330
328 329 332 333 335 334 333 336 338 338 339 339 340 341 345 346 348 352 353 351 349 349 349 339 329 333 332 325 323 325 327 330 331 331 330 330 329 329 328 327 326 325 325 328 328 329 330 330 329
329 331 330 330 332 333 333 335 337 337 339 337 335 341 349 349 349 352 350 349 348 347 348 346 338 331 337 331 326 324 324 325 325 326 327 326 326 325 324 324 324 324 325 326 327 328 329 329 329
325 328 329 330 330 332 331 333 332 336 335 333 330 334 341 338 346 346 346 349 347 345 347 350 350 336 339 337 334 330 326 324 324 324 324 324 324 325 326 326 327 327 327 328 328 329 330 330 331
324 327 329 330 330 332 330 331 335 331 335 330 329 329 337 347 345 343 344 347 349 346 347 349 349 350 349 347 339 338 338 337 334 331 332 331 330 334 334 332 330 330 330 331 331 331 331 332 332
326 329 330 330 330 331 329 329 332 331 331 332 329 329 335 342 346 343 340 343 343 347 347 347 347 348 349 348 344 337 340 340 334 336 336 334 347 347 346 346 344 338 333 332 332 332 333 333 336
327 329 328 327 327 327 327 326 326 328 330 328 326 328 332 338 342 340 337 339 342 344 346 345 350 349 348 348 348 348 348 351 353 352 350 351 351 347 346 347 346 348 345 346 345 345 341 340 344
326 326 326 325 324 325 325 325 325 325 325 325 326 330 331 333 334 332 334 339 339 342 342 347 351 350 351 351 349 347 343 341 343 341 330 336 340 348 343 346 347 346 343 343 347 347 347 348 343
326 325 324 324 323 324 323 324 325 325 324 325 328 328 331 332 333 331 331 338 344 343 346 347 351 352 355 351 348 343 338 332 333 332 323 328 328 330 334 338 340 340 343 342 343 341 335 341 344
325 324 324 323 324 324 325 325 325 326 325 325 325 327 327 328 329 331 334 336 345 349 348 349 349 348 348 345 343 339 333 320 326 324 318 316 325 323 327 327 328 328 330 336 340 338 342 334 338
324 325 325 324 324 324 324 326 327 326 326 326 326 327 327 327 329 329 328 337 346 347 347 345 342 340 340 341 335 330 327 327 326 320 315 315 316 317 315 327 327 329 330 329 329 331 332 335 336
325 326 327 326 324 324 324 327 326 326 326 327 327 327 328 330 331 331 329 339 343 343 344 341 337 336 334 333 328 328 327 327 326 325 325 321 320 314 315 323 325 319 322 326 330 331 331 329 328
326 327 327 327 325 326 325 328 327 326 327 327 327 328 329 330 331 331 330 330 335 339 341 337 335 334 332 322 326 324 319 325 326 324 323 320 324 322 318 323 321 312 321 323 326 327 329 331 332
328 327 326 326 327 326 326 327 328 326 327 327 328 328 329 330 330 331 331 331 331 334 335 334 332 328 323 324 318 325 325 324 324 323 324 323 324 324 317 324 322 317 323 323 321 312 317 324 327
326 326 326 326 326 325 325 327 328 327 326 327 327 327 328 328 329 330 330 330 331 332 332 332 332 329 328 326 325 324 324 324 323 323 324 324 325 325 325 325 324 324 323 322 318 320 321 322 323
325 326 326 326 325 325 325 327 328 327 326 326 326 326 326 326 326 328 329 330 331 331 332 331 331 331 329 327 328 327 327 326 326 326 327 324 322 325 325 326 324 323 325 321 322 318 319 322 321
326 326 326 326 326 326 326 326 328 327 325 325 324 324 324 324 324 324 324 325 326 327 329 330 330 330 330 325 328 330 330 328 327 327 328 328 327 327 327 325 326 325 322 324 323 322 320 321 321
324 325 324 323 324 325 327 327 329 328 327 325 324 324 323 323 323 322 321 321 321 321 321 322 323 324 324 324 322 323 324 324 323 326 325 324 326 325 325 326 325 324 325 323 322 322 322 318 321
323 321 321 321 322 323 323 324 327 328 327 326 325 324 323 323 322 321 321 320 320 319 318 318 319 319 320 321 320 321 320 321 322 322 322 321 321 319 321 322 324 324 324 324 322 322 321 320 319
321 321 322 323 323 323 324 324 321 326 326 324 324 323 322 321 320 320 320 319 318 318 317 317 317 317 318 318 318 320 320 320 320 319 320 319 317 317 318 319 322 325 323 323 322 324 323 318 318
321 322 324 325 325 324 323 322 321 326 325 323 322 323 322 321 320 319 318 318 317 317 317 317 316 316 316 315 315 316 317 318 319 319 318 316 317 316 317 318 319 321 323 324 322 322 322 321 320
320 320 322 323 322 321 321 321 328 325 323 321 321 321 320 319 319 318 316 316 316 315 315 315 315 315 314 314 314 314 315 315 316 316 316 316 316 316 316 316 316 317 321 322 322 322 322 321 321
321 324 320 322 325 323 322 321 324 323 322 321 320 320 319 318 318 317 316 315 314 314 313 313 313 313 313 313 313 313 313 314 315 315 316 315 315 314 313 314 315 316 318 322 320 321 321 320 320
320 320 324 325 326 321 320 320 324 323 323 321 320 319 318 317 316 315 314 314 314 313 312 312 312 312 313 312 313 312 312 313 314 314 313 312 311 312 311 312 313 313 314 315 318 320 320 319 320
322 323 322 322 324 323 322 321 322 322 321 320 319 318 318 317 315 314 314 313 312 311 311 311 311 311 311 311 311 311 311 312 311 311 311 310 309 309 309 310 310 311 312 313 316 318 320 318 317
320 320 321 324 326 323 323 323 323 321 320 319 319 319 317 316 314 313 312 311 310 309 309 310 310 310 310 311 311 311 310 309 308 308 308 308 307 308 309 309 309 309 311 312 313 317 317 317 316

GFSSGP_850_thetae_240.txt.gz
Theta_e
325 331 336 337 339 342 344 344 342 341 342 343 344 346 349 348 353 357 355 352 353 347 339 336 326 329 340 341 340 330 332 329 326 326 328 329 328 327 329 329 329 329 329 329 328 327 326 325 326
326 332 332 336 340 347 345 342 343 342 342 344 345 345 348 351 353 353 351 349 352 350 343 337 332 324 338 341 341 332 332 335 330 326 326 328 330 328 327 328 328 327 327 327 326 326 326 325 325
327 330 332 336 338 342 344 342 340 339 340 342 343 345 346 349 352 353 350 351 348 351 349 338 336 328 333 341 342 337 332 337 337 330 327 327 327 327 327 327 327 327 327 327 327 326 326 326 326
332 332 333 336 339 340 338 340 337 340 340 340 344 343 346 347 351 351 348 347 345 351 350 344 338 332 326 337 341 341 337 338 340 335 330 327 327 326 327 327 327 327 328 328 328 329 328 328 328
329 330 333 334 338 337 339 338 338 341 339 338 343 347 347 349 352 350 351 347 349 355 351 345 337 336 328 328 338 340 339 339 340 337 333 329 327 327 327 327 327 327 326 327 328 329 329 330 329
329 330 331 332 337 336 334 337 337 337 335 337 342 343 337 344 350 351 351 347 346 349 346 335 330 331 335 326 324 330 335 335 336 334 333 329 328 328 328 327 326 325 325 325 326 328 329 328 329
328 330 330 329 333 334 334 333 338 337 333 334 344 344 334 334 351 353 349 348 347 347 351 333 329 327 334 333 325 323 326 329 330 330 329 329 329 329 327 326 324 324 325 325 326 327 328 329 329
326 327 327 329 330 332 332 333 335 335 335 333 330 339 332 338 349 347 347 348 347 346 351 349 334 330 336 336 333 327 324 324 325 326 327 328 325 324 326 326 327 328 328 328 329 329 330 330 331
325 326 327 331 332 332 331 331 333 332 333 332 330 341 341 345 344 345 346 343 348 346 348 352 351 335 340 338 337 334 331 326 325 325 325 326 328 331 340 341 337 340 336 332 331 331 331 331 332
326 327 328 330 331 331 330 329 330 330 331 329 329 342 343 341 342 338 340 348 347 346 345 345 351 350 350 348 341 339 338 336 335 332 332 332 344 346 346 347 344 337 340 340 340 337 334 333 334
327 327 329 328 327 328 328 327 327 328 328 328 326 330 336 339 339 341 339 341 344 344 339 343 349 349 350 350 346 343 342 350 347 347 350 347 348 352 349 348 349 348 347 344 343 346 343 343 341
326 327 326 326 325 325 326 326 326 325 325 326 329 330 332 333 334 332 334 336 331 339 339 328 348 348 350 345 328 348 348 350 351 349 348 344 334 343 348 345 343 344 340 344 346 334 326 339 337
326 326 325 324 324 324 324 325 326 325 325 326 328 329 330 331 331 330 331 342 343 344 347 351 350 350 352 350 349 347 344 337 339 337 328 336 337 334 340 337 338 335 336 335 337 339 340 338 341
326 325 325 324 324 324 325 325 325 326 325 326 326 327 327 328 330 331 331 346 351 349 350 349 349 352 352 351 349 344 340 335 331 331 328 319 322 323 321 326 328 327 327 328 330 329 329 331 334
325 324 325 325 324 324 324 325 326 326 326 327 327 327 328 332 333 332 331 339 345 347 347 344 343 343 344 343 341 335 334 330 328 324 317 316 316 316 315 326 326 328 328 322 328 330 332 331 328
325 326 326 326 325 324 324 325 327 326 326 327 327 328 330 332 333 332 331 332 338 343 344 341 339 338 337 336 334 331 330 329 328 327 324 319 319 318 313 320 321 318 312 322 325 327 327 329 331
326 326 327 327 326 326 325 327 328 327 327 328 328 329 330 331 332 332 332 332 335 339 340 338 336 336 334 331 331 329 328 328 327 326 325 324 324 323 318 325 320 315 316 320 319 316 313 312 314
328 328 328 328 327 326 326 329 329 327 327 328 328 329 330 330 331 331 331 333 333 334 334 334 334 332 326 328 323 327 327 324 326 325 324 323 326 325 319 325 326 321 322 325 321 317 316 316 319
327 327 327 326 327 327 326 325 329 328 327 327 327 328 328 328 329 330 331 332 333 333 332 332 332 331 327 330 328 329 328 327 325 325 325 325 326 326 325 323 325 325 325 324 321 321 320 319 319
325 325 326 326 327 326 326 325 326 328 327 327 327 327 326 326 326 326 327 327 329 330 330 329 330 330 328 331 330 329 327 327 328 328 328 327 326 327 326 326 325 322 322 322 321 323 323 322 320
326 327 327 326 326 326 326 326 326 329 327 327 325 325 324 324 324 324 323 323 323 323 324 324 324 324 326 324 323 324 328 326 328 327 328 328 329 328 328 326 324 320 318 317 319 326 324 322 321
325 324 325 325 324 323 325 325 327 330 328 327 325 325 324 324 324 323 322 322 321 321 320 320 320 320 320 320 321 322 320 321 321 323 323 324 323 325 324 324 322 317 318 319 322 323 323 323 322
324 322 321 321 321 322 322 322 324 330 329 328 326 325 325 324 322 321 321 321 320 320 319 319 319 319 318 318 318 318 319 321 320 320 320 320 319 319 319 319 316 321 322 322 323 321 324 323 322
324 322 323 323 323 324 325 324 326 329 328 326 326 325 324 323 322 321 320 320 319 318 317 318 317 317 317 316 316 315 315 316 318 320 321 319 317 317 319 320 319 318 321 322 323 321 321 323 323
324 323 323 327 327 326 324 324 325 327 326 324 323 322 322 322 320 319 320 319 317 317 316 315 316 315 314 314 314 314 314 315 314 315 317 318 318 317 317 317 318 320 319 320 321 322 320 322 322
321 321 321 326 326 323 323 323 328 326 323 323 322 321 321 320 320 320 319 318 316 316 315 315 315 314 314 313 314 314 313 313 314 314 315 316 316 318 317 316 315 314 314 315 317 320 319 318 321
322 322 321 321 322 324 323 327 325 324 324 322 321 321 320 321 320 319 318 317 315 315 314 313 313 312 312 312 313 313 313 314 314 312 313 314 314 316 315 314 314 314 312 313 315 317 316 318 319
320 321 321 328 326 323 321 322 325 324 323 322 320 319 319 320 319 318 316 316 314 314 312 311 311 311 312 312 313 314 314 313 314 313 312 312 311 311 311 311 312 311 311 310 313 315 316 319 319
324 324 322 324 323 325 325 323 324 323 322 321 320 319 319 319 317 316 314 313 312 311 310 311 312 312 312 311 311 311 311 311 311 311 310 309 308 309 308 308 308 308 309 309 311 312 312 312 314
319 319 321 326 325 325 325 325 324 323 321 320 319 318 317 315 314 314 313 312 311 310 312 311 311 311 311 310 309 309 310 309 309 308 308 307 308 308 308 307 307 307 309 309 310 309 311 312 313

GFSSGP_850_thetae_246.txt.gz
Theta_e
322 329 332 335 333 334 344 342 342 342 343 339 344 348 352 351 349 351 345 349 349 349 335 326 325 336 340 334 331 326 324 325 327 328 328 327 328 327 326 326 327 326 325 325 324 324 324 324 326
331 331 332 333 332 337 340 339 341 340 341 339 342 350 352 353 353 351 350 350 348 342 334 327 327 337 340 337 332 332 328 325 325 326 327 327 327 327 326 326 326 327 326 326 326 326 325 325 325
328 331 330 324 328 338 339 339 339 339 341 345 347 348 349 352 351 351 351 351 345 337 335 331 326 338 340 339 332 335 334 331 328 325 325 326 326 326 326 326 326 326 326 327 327 327 328 328 327
327 330 329 326 332 334 338 336 338 337 342 342 342 339 348 351 350 349 351 348 346 340 340 335 329 331 340 340 336 333 337 337 335 330 327 325 325 325 326 326 326 325 326 326 327 327 328 328 328
326 328 321 324 326 337 336 337 338 337 342 341 337 336 340 348 349 348 347 348 345 345 349 338 333 328 337 341 340 335 335 338 338 335 331 327 326 326 326 326 326 326 325 325 326 327 328 328 328
325 323 320 320 323 336 336 338 337 341 340 337 336 336 334 342 346 348 348 339 346 347 344 337 332 328 333 337 340 340 336 337 339 338 334 331 328 327 327 327 327 327 326 325 325 326 327 328 329
322 317 320 320 324 333 335 337 336 343 341 337 333 335 331 342 346 346 345 346 347 348 340 330 331 332 327 327 332 336 338 338 338 337 335 333 330 328 328 328 327 326 326 326 326 327 328 329 330
323 317 318 317 327 334 334 336 337 341 340 333 335 332 334 342 346 344 344 341 336 340 341 336 333 330 334 330 325 324 325 326 327 329 329 329 328 329 328 326 330 330 331 336 334 332 330 330 331
323 316 315 318 325 324 332 329 332 337 338 336 336 335 337 345 346 343 338 332 340 342 338 334 333 330 335 336 333 328 325 325 325 326 326 326 326 326 327 340 344 346 345 344 345 345 337 339 335
320 316 319 321 321 322 323 327 335 338 338 336 338 340 342 343 344 340 334 332 332 338 340 334 331 334 333 337 334 338 337 333 330 329 326 327 328 336 340 342 344 346 347 345 345 342 342 336 338
320 317 320 320 324 323 322 323 325 330 328 339 339 335 334 334 338 339 335 333 331 335 340 334 329 335 336 330 330 337 336 337 336 337 333 334 337 335 339 339 340 344 343 342 339 342 340 337 336
321 321 321 322 324 324 322 324 323 325 329 332 333 335 339 338 339 342 337 332 333 337 330 333 340 337 339 333 332 334 339 340 342 337 335 333 334 335 336 339 340 343 343 339 335 336 334 330 331
320 321 322 323 325 324 324 323 322 324 332 332 331 331 335 344 345 342 343 338 337 335 340 334 333 333 337 338 337 337 333 338 337 340 338 332 332 337 339 340 344 340 337 334 330 331 331 331 329
322 322 321 322 323 324 322 322 324 324 331 331 331 331 334 339 342 345 345 344 343 343 341 341 340 339 337 338 341 341 340 338 338 339 341 342 337 339 337 332 332 330 328 328 328 328 330 329 327
322 321 318 320 322 320 325 322 321 328 329 331 331 331 331 331 333 343 343 342 341 340 339 338 336 335 336 337 336 336 337 336 333 331 331 331 330 327 326 326 326 326 327 327 327 327 330 330 330
321 318 318 318 320 321 322 323 323 328 330 331 331 331 331 330 328 326 326 330 330 327 326 331 334 335 335 334 333 332 331 329 328 327 327 327 325 320 318 318 324 323 322 318 321 324 323 315 314
317 318 320 322 319 320 320 323 324 327 330 331 330 330 330 330 329 326 324 322 322 320 319 318 318 320 324 329 328 330 328 327 327 327 326 326 325 324 324 320 323 322 319 320 321 320 318 319 317
321 320 320 323 323 320 322 323 323 327 329 329 330 330 330 330 330 326 323 322 321 321 320 319 319 317 317 323 324 323 326 326 326 325 326 325 326 325 325 324 326 325 324 323 323 319 318 317 319
320 321 322 323 321 322 323 323 323 325 328 328 329 330 330 329 327 325 324 322 322 321 321 320 320 319 318 317 316 317 323 327 327 326 326 326 326 327 327 327 326 326 325 322 319 320 318 318 322
319 318 319 320 320 320 322 324 323 322 324 327 328 329 329 328 326 324 323 322 322 321 320 320 320 319 318 318 317 317 317 316 314 312 314 317 323 326 326 327 326 326 324 321 319 318 319 321 323
319 319 319 319 318 318 318 317 323 324 325 326 328 327 325 324 324 323 322 322 321 321 320 321 320 319 318 317 317 316 316 316 315 314 311 311 313 317 319 322 322 322 323 321 319 318 318 318 318
323 321 320 319 316 316 317 315 314 322 322 323 325 325 324 323 323 322 321 322 321 320 321 321 319 316 317 317 316 315 314 314 314 313 312 311 312 311 311 310 315 317 317 319 316 316 315 316 318
322 321 320 320 317 317 316 315 315 321 322 321 320 322 323 323 321 320 320 320 317 316 316 316 316 317 318 317 317 316 314 314 313 313 312 312 313 312 312 310 317 319 318 321 321 322 322 320 317
320 318 315 315 314 316 317 317 321 321 321 319 322 323 322 321 320 319 319 318 317 317 316 315 315 314 313 312 312 313 315 315 314 314 313 313 312 312 312 311 311 316 317 317 318 320 320 321 322
316 313 314 315 319 318 316 323 322 321 319 319 320 321 320 320 319 319 318 315 314 315 315 313 312 312 311 311 312 313 313 313 316 316 315 314 314 314 314 313 311 311 311 313 314 316 316 316 318
318 314 314 320 319 316 318 325 322 320 321 320 320 320 320 319 317 315 315 315 315 314 313 312 312 311 311 312 312 311 310 310 311 311 312 313 314 313 313 313 314 312 311 310 310 314 312 313 314
318 318 315 316 319 317 319 323 320 320 320 319 318 319 317 315 314 314 314 312 311 311 310 310 310 311 311 310 310 309 308 307 308 309 309 309 309 310 313 313 313 312 311 311 311 310 309 309 311
315 316 314 315 323 321 317 321 322 320 319 316 315 315 314 314 313 313 312 311 311 311 311 311 311 311 310 309 308 307 307 307 307 307 308 309 310 309 309 309 308 308 308 307 307 308 308 308 308
318 319 313 313 315 316 319 318 316 318 317 314 315 314 313 313 313 312 312 311 312 311 311 311 311 310 308 308 308 307 307 307 307 307 307 307 307 307 308 308 308 307 307 308 307 307 307 307 308
316 315 314 316 317 318 318 318 317 313 316 315 314 314 314 314 314 313 312 312 312 312 311 311 310 308 308 307 308 308 307 305 305 305 305 305 306 306 307 307 307 307 307 306 306 307 307 307 308